Regional Weather Roundup
Issued by NWS

Home | Current Version | Previous Version | Graphics & Text | Print | Product List | Glossary On
Versions: 1 2 3 4 5 6 7 8 9 10 11 12 13 14 15 16 17 18 19 20 21 22 23 24 25 26 27 28 29 30 31 32 33 34 35 36 37 38 39 40 41 42 43 44 45 46 47 48 49 50
399
ASUS43 KDTX 272001
RWRMI
MICHIGAN HOURLY REGIONAL WEATHER ROUNDUP
NATIONAL WEATHER SERVICE DETROIT/PONTIAC MI
400 PM EDT SUN MAY 27 2018

NOTE: "FAIR" INDICATES FEW OR NO CLOUDS BELOW 12,000 FEET WITH NO
SIGNIFICANT WEATHER AND/OR OBSTRUCTION TO VISIBILITY.

MIZ047>049-052>055-059>063-066>070-074>076-081>083-272100-
SOUTHEAST LOWER MICHIGAN

CITY           SKY/WX    TMP DP  RH WIND       PRES   REMARKS
ADRIAN         FAIR      90  60  36 VRB3      29.90F
ALMA           FAIR      90  60  35 W9        29.86S HX  90
ANN ARBOR      FAIR      89  61  38 SW5       29.89F
BAD AXE        FAIR      87  64  46 SW10      29.85F
CARO           FAIR      89  65  45 S7        29.84F HX  91
DETROIT CITY   FAIR      88  67  49 VRB5      29.88F HX  91
DETROIT        FAIR      89  62  40 SW6       29.89F
FLINT          FAIR      88  66  48 SW8       29.87F HX  90
GROSSE ILE     FAIR      79  71  74 S6        29.89F
HILLSDALE      FAIR      90  59  35 CALM      29.91S
HOWELL         FAIR      89  63  41 W5        29.89F

CITY           SKY/WX    TMP DP  RH WIND       PRES   REMARKS
JACKSON        FAIR      92  64  39 VRB3      29.89F HX  93
LAMBERTVILLE   FAIR      91  56  31 CALM      29.90S
LANSING        FAIR      91  63  39 W14       29.88F HX  92
LAPEER         FAIR      90  58  34 SW7       29.88F
MASON          FAIR      89  62  39 CALM      29.89F
MT. CLEMENS    MOSUNNY   83  76  78 S12       29.89S HX  91
PONTIAC        FAIR      89  63  41 NW6       29.88F HX  90
PORT HOPE        N/A     79  63  57 CALM      29.82F
PORT HURON     FAIR      86  64  48 S7        29.88F
TRI CITIES     FAIR      92  64  39 W12       29.84F HX  93
MIDLAND        FAIR      88  63  42 SW8       29.82F
TROY           FAIR      91  57  32 W8        29.90F
SAGINAW HB     FAIR      91  63  38 S14       29.83F HX  92
$$
MIZ043>046-050>051-056>058-064>065-071>073-077>080-272100-
SOUTHWEST LOWER MICHIGAN

CITY           SKY/WX    TMP DP  RH WIND       PRES   REMARKS
BATTLE CREEK   FAIR      89  63  41 SW8       29.90F HX  90
BENTON HARBOR  FAIR      88  68  51 W8        29.89F HX  91
BIG RAPIDS     FAIR      91  59  34 W12G22    29.85F
COLDWATER      FAIR      89  59  35 CALM      29.90F
HOLLAND        FAIR      89  64  43 W9        29.89F HX  90
GRAND RAPIDS   FAIR      92  62  36 W10       29.88S HX  92
IONIA          FAIR      93  57  30 W7        29.87S HX  92
KALAMAZOO      FAIR      93  60  33 MISG      29.89F HX  93
LUDINGTON      FAIR      78  65  65 SW6       29.87F
MARSHALL       FAIR      91  60  35 W6        29.89S HX  91
MOUNT PLEASANT FAIR      88  64  43 W5        29.83F
MUSKEGON       FAIR      85  64  49 SW9       29.88F
SOUTH HAVEN    FAIR      90  58  33 W6        29.89F
$$
MIZ016>042-272100-
NORTHERN LOWER MICHIGAN

CITY           SKY/WX    TMP DP  RH WIND       PRES   REMARKS
ALPENA         FAIR      86  68  54 NE10      29.82R
BEAVER ISLAND  FAIR      77  58  53 W8        29.87R
BELLAIRE       FAIR      81  58  45 CALM      29.85F
CADILLAC       FAIR      90  54  30 W14G21    29.87F
CHARLEVOIX     FAIR      74  60  62 W5        29.89F
FRANKFORT      FAIR      78  63  59 W5        29.88S
GAYLORD        FAIR      83  58  42 W12G20    29.87S
GRAYLING       FAIR      88  55  32 NW16G23   29.84F
HARBOR SPRINGS FAIR      60  53  77 SW6       29.86F
HOUGHTON LAKE  FAIR      90  54  29 W13G25    29.85F
MANISTEE       FAIR      82  66  58 W7        29.87F
OSCODA         FAIR      84  64  50 W15G30    29.84R
PELLSTON       FAIR      84  60  44 W7        29.84F
ROGERS CITY    FAIR      59  51  74 N3        29.86F
TRAVERSE CITY  FAIR      68  57  68 N8        29.84F
$$
MIZ007>008-015-272100-
EASTERN UPPER MICHIGAN

CITY           SKY/WX    TMP DP  RH WIND       PRES   REMARKS
KINROSS        FAIR      77  62  59 N12       29.85S
MACKINAC ISLAN FAIR      70  58  66 W3        29.85S
NEWBERRY       FAIR      81  61  49 N13       29.86R
S. S. MARIE    FAIR      78  63  59 NW10      29.84F
$$
MIZ004>006-011>014-085-272100-
CENTRAL UPPER MICHIGAN

CITY           SKY/WX    TMP DP  RH WIND       PRES   REMARKS
MANISTIQUE     FAIR      73  63  71 SW6       29.85R
ESCANABA       FAIR      80  65  59 S9        29.85S
MENOMINEE      FAIR      81  62  52 SE7       29.86F
SAWYER-GWINN   SUNNY     79  57  47 NE12      29.88S
$$
MIZ001>003-009>011-084-272100-
WESTERN UPPER MICHIGAN

CITY           SKY/WX    TMP DP  RH WIND       PRES   REMARKS
IRON MOUNTAIN  FAIR      90  53  28 NW16G25   29.85S
HOUGHTON       FAIR      81  57  43 MISG      29.85F
COPPER HARBOR    N/A     48  44  86 CALM      29.86F
IRONWOOD       FAIR      82  59  45 W6        29.87F
$$

ABBREVIATIONS USED IN REMARKS
   TC - TEMPERATURE IN CELSIUS
  WCI - WIND CHILL INDEX
   HX - HEAT INDEX
  VSB - VISIBILITY





USA.gov is the U.S. government's official web portal to all federal, state and local government web resources and services.